Flag for United Arab Emirates Weather past 2 weeks in Umm al-Quwain, Umm al-Quwain, United Arab Emirates

Now
72 °F

Sunny.


Feels Like: 77 °F
Forecast: 65 / 76 °F
Wind: 6 mph from Southeast

Location: Sharjah International Airport

Current Time: Jan 28, 2015 at 11:35:55 AM

Latest Report: Jan 28, 2015 at 11:00 AM


Visibility: 10 mi

Pressure: 30.12 "Hg

Humidity: 53%

Dew point: 54 °F

Location of Umm al-QuwainLocation

Historic Weather in Umm al-Quwain — Graph

°F

Umm al-Quwain temperature yesterday

Maximum temperature yesterday: 77 °F (at 1:00 PM)
Minimum temperature yesterday: 55 °F (at 4:00 AM)
Average temperature yesterday: 66 °F

Past Weeks' High & Low Weather Summary

 TemperatureHumidityPressure
High79 °F (Jan 15, 2:00 PM)88% (Jan 18, 5:00 AM)30.24 "Hg (Jan 18, 5:00 AM)
Low50 °F (Jan 15, 6:00 AM)21% (Jan 15, 2:00 PM)29.59 "Hg (Jan 23, 10:00 AM)
Average64 °F60%30.11 "Hg
* Reported Jan 13 10:00 AM — Jan 28 10:00 AM, Umm al-Quwain, Weather by CustomWeather, © 2014

Note: Actual official high and low records may vary slightly from our data, if they occured in-between our weather recording intervals... More about our weather records

Advertising

Umm al-Quwain weather history for previous 24 hours

 ConditionsComfort  
Time TempWeatherWind HumidityBarometerVisibility
10:00 AM
Jan 28
70 °FClear.6 mph64%30.12 "Hg5 mi
9:00 AM64 °FClear.6 mph73%30.12 "Hg4 mi
8:00 AM61 °FClear.6 mph77%30.09 "Hg4 mi
7:00 AM59 °FHaze.6 mph82%30.09 "Hg3 mi
6:00 AM57 °FHaze.6 mph82%30.07 "Hg3 mi
5:00 AM59 °FClear.6 mph82%30.07 "Hg4 mi
4:00 AM57 °FClear.3 mph88%30.07 "Hg5 mi
3:00 AM59 °FClear.3 mph82%30.09 "Hg5 mi
2:00 AM63 °FClear.7 mph77%30.09 "Hg10 mi
1:00 AM59 °FClear.5 mph82%30.09 "Hg10 mi
12:00 AM64 °FClear.2 mph73%30.09 "Hg10 mi
11:00 PM
Jan 27
66 °FClear.5 mph68%30.12 "Hg10 mi
10:00 PM64 °FClear.No wind73%30.12 "Hg10 mi
9:00 PM68 °FClear.2 mph60%30.12 "Hg10 mi
8:00 PM68 °FClear.6 mph64%30.12 "Hg10 mi
7:00 PM70 °FClear.5 mph57%30.09 "Hg10 mi
6:00 PM75 °FClear.N/A54%30.09 "Hg10 mi
5:00 PM77 °FSunny.N/A34%30.09 "Hg10 mi
3:00 PM75 °FSunny.10 mph44%30.07 "Hg10 mi
2:00 PM77 °FSunny.5 mph30%30.09 "Hg10 mi
1:00 PM77 °FSunny.5 mph32%30.12 "Hg10 mi
12:00 PM75 °FSunny.5 mph39%30.15 "Hg10 mi
11:00 AM73 °FSunny.5 mph47%30.18 "Hg10 mi
Weather by CustomWeather, © 2014

See weather overviewHow to use our weather pages